User: anonymous   Login
Location: Unspecified
(0.0000°N, 0.0000°E)
Time: 05:07:41
(UTC+00:00)
Language:

Transit 2A - Orbit

View from above orbital plane
View from above orbital plane
View from above satellite
View from above satellite

Ground track
Ground track

The orbit data is extracted from the following two-line orbital elements,

1 00045U 60007A   15238.88450290  .00000085  00000-0  48576-4 0  9994
2 00045 066.6963 329.1143 0253339 155.6510 205.6812 14.33387114870923
Epoch (UTC): 26 August 2015 21:13:41
Eccentricity: 0.0253339
inclination: 66.6963°
perigee height: 599 km
apogee height: 962 km
right ascension of ascending node: 329.1143°
argument of perigee: 155.6510°
revolutions per day: 14.33387114
mean anomaly at epoch: 205.6812°
orbit number at epoch: 87092

The dashed part of the orbit path shows where the satellite is in the earth's shadow,  

DLR